Location: *
(37.5724°S, 58.0067°E)
Time: 20:46:44
(UTC+00:00)

Cosmos 1953 - Pass Details

Date: 26 September 2020
Orbit: 538 x 558 km, 82.5° (Epoch: 27 October)

Event Time Altitude Azimuth Distance (km) Brightness Sun altitude
Rises 16:40:43 0° 200° (SSW) 2,780 6.6 -29.8°
Reaches altitude 10° 16:43:07 10° 211° (SSW) 1,876 5.7 -30.2°
Enters shadow 16:46:16 28° 259° (W) 1,084 4.3 -30.7°
